Tracking 25710 objects as of 7-Jul-2022
HD Live streaming from Space Station
objects crossing your sky now

STARLINK-3653

Track STARLINK-3653 now!
10-day predictions
STARLINK-3653 is classified as:


NORAD ID: 52000
Int'l Code: 2022-025AW
Perigee: 546.0 km
Apogee: 547.8 km
Inclination: 53.2 °
Period: 95.4 minutes
Semi major axis: 6917 km
RCS: Unknown
Launch date: March 9, 2022
Source: United States (US)
Launch site: AIR FORCE EASTERN TEST RANGE (AFETR)
aabbcc
Your satellite tracking list
Your tracking list is empty




NASA's NSSDC Master Catalog

Two Line Element Set (TLE):
1 52000U 22025AW  22187.58334491  .00003454  00000-0  23506-3 0  9990
2 52000  53.2160 284.0540 0001307  82.1925 178.5759 15.08832256 19841
Source of the keplerian elements: AFSPC